Regional Weather Roundup
Issued by NWS

Home | Current Version | Previous Version | Text Only | Print | Product List | Glossary On
Versions: 1 2 3 4 5 6 7 8 9 10 11 12 13 14 15 16 17 18 19 20 21 22 23 24 25 26 27 28 29 30 31 32 33 34 35 36 37 38 39 40 41 42 43 44 45 46 47 48 49 50
000
ASUS45 KBOU 012010
RWRCO

WEATHER ROUNDUP FOR COLORADO
NATIONAL WEATHER SERVICE DENVER/BOULDER CO
200 PM MDT SAT OCT 01 2016

NOTE: "FAIR" INDICATES FEW OR NO CLOUDS BELOW 12000 FEET WITH NO
SIGNIFICANT WEATHER AND/OR OBSTRUCTIONS TO VISIBILITY.

COZ001>005-013-030-031-012100-
...NORTHWEST COLORADO...

CITY           SKY/WX    TMP DP  RH WIND       PRES   REMARKS
CRAIG          FAIR      73  39  29 W9        30.16F
HAYDEN         FAIR      68  39  34 W7        30.18F
MEEKER         PTSUNNY   68  43  40 NW6       30.17F
MOUNT WERNER   NOT AVBL
STEAMBOAT SPGS FAIR      67  38  35 CALM      30.20F
WALDEN           N/A     63  32  31 SW10      30.27F
$$

COZ006>008-011-012100-
...WEST CENTRAL VALLEYS...

CITY           SKY/WX    TMP DP  RH WIND       PRES   REMARKS
GRAND JUNCTION FAIR      71  47  42 SW3       30.13F
MONTROSE       FAIR      72  42  34 CALM      30.18F
EAGLE          MOSUNNY   70  39  32 CALM      30.20F
RIFLE          FAIR      73  46  38 W12       30.14F
DELTA          FAIR      77  43  30 SE5       30.15F
NUCLA          FAIR      70  43  37 N6        30.23F
$$

COZ017>023-064>068-012100-
...SOUTHWEST COLORADO...

CITY           SKY/WX    TMP DP  RH WIND       PRES   REMARKS
DURANGO        FAIR      70  39  32 W12G22    30.22F
CORTEZ         PTSUNNY   67  49  52 W7        30.21F
PAGOSA SPRINGS FAIR      66  35  32 SW9       30.28F
TELLURIDE      PTSUNNY   60  39  45 SW6       30.37F
WOLF CREEK PAS NOT AVBL
$$

COZ009-010-012-014-032>034-037-058>063-012100-
...CENTRAL COLORADO...

CITY           SKY/WX    TMP DP  RH WIND       PRES   REMARKS
ASPEN          FAIR      65  36  34 VRB3      30.24F
BUENA VISTA    PTSUNNY   65  33  29 SE8       30.24F
COPPER MTN     CLOUDY    52  30  43 NW12G18   30.49F
BERTHOUD PASS  FAIR      43  32  65 N14G21    30.51F
COTTONWOOD PAS FAIR      64  32  29 SE7       30.35F
GUNNISON       FAIR      67  36  31 SW7       30.26F
KREMMLING      FAIR      64  41  42 CALM      30.25F
LEADVILLE      PTSUNNY   60  25  26 NW7       30.34F
SALIDA         CLOUDY    70  37  29 SE7       30.29F
SUNLIGHT       PTSUNNY   54  41  62 SW3       30.47F
WILKERSON PASS FAIR      54  34  47 SW7       30.47F
$$

COZ069>075-012100-
...SAN LUIS VALLEY/SANGRE DE CRISTO MOUNTAINS...

CITY           SKY/WX    TMP DP  RH WIND       PRES   REMARKS
ALAMOSA        FAIR      67  35  30 VRB3      30.24F
LA VETA PASS   FAIR      61  30  31 MISG      30.39F
SAGUACHE       PTSUNNY   64  34  32 NW3       30.26F
$$

COZ035-036-038>040-012100-
...NORTHERN COLORADO FRONT RANGE...

CITY           SKY/WX    TMP DP  RH WIND       PRES   REMARKS
DENVER INTL AP FAIR      78  40  25 E12       30.08F
DMNS CITY PARK   N/A     78  38  23 N5        30.07F
AURORA         MOSUNNY   77  40  25 S6        30.09F
FRONT RANGE AP MOSUNNY   77  39  25 W5        30.09F
ERIE MUNI ARPT FAIR      80  36  20 SE9       30.06F
BOULDER MUN AP FAIR      79  39  24 SE5       30.07F
CENTENNIAL     FAIR      76  38  25 E8        30.10F
BROOMFIELD     MOSUNNY   77  39  25 SE6       30.11F
FORT COLLINS   FAIR      79  43  27 S10       30.04F
LONGMONT       FAIR      82  41  23 E7        30.07F
$$

COZ041-046-047-076>085-087-088-012100-
...PIKES PEAK/PALMER DIVIDE AND SOUTHERN FOOTHILLS...

CITY           SKY/WX    TMP DP  RH WIND       PRES   REMARKS
COLO. SPRINGS  FAIR      73  42  32 SW8G18    30.15F
A. F. ACADEMY  FAIR      73  40  30 VRB7      30.14F
SCHRIEVER AFB  NOT AVBL
ELLICOTT       NOT AVBL
FALCON         CLOUDY    74  38  26 S5G18     30.19F
FORT CARSON    FAIR      74  41  30 VRB7      30.11F
LIMON          FAIR      78  39  24 VRB3      30.09F
MONUMENT HILL  FAIR      70  37  30 S8        30.20F
TRINIDAD       FAIR      77  38  24 VRB7      30.11F
$$

COZ042>045-048>051-090-091-012100-
...NORTHEAST COLORADO...

CITY           SKY/WX    TMP DP  RH WIND       PRES   REMARKS
GREELEY ARPT   FAIR      79  43  27 SW6       30.06F
AKRON          FAIR      78  43  28 MISG      30.06F
BURLINGTON     FAIR      75  48  38 SE13G23   30.06F
WRAY           NOT AVBL
STERLING       FAIR      81  46  30 S5        30.01F
HOLYOKE        FAIR      81  48  32 S10G20    30.04F
FORT MORGAN    FAIR      80  40  24 CALM      30.05F
$$

COZ086-089-092>099-012100-
...SOUTHEAST COLORADO...

CITY           SKY/WX    TMP DP  RH WIND       PRES   REMARKS
PUEBLO         FAIR      79  42  26 VRB5      30.04F
LA JUNTA       FAIR      80  47  31 E6        30.03F
LAMAR          FAIR      75  50  41 NE5       30.01F
SPRINGFIELD      N/A     78  49  35 MISG      30.04F
$$



USA.gov is the U.S. government's official web portal to all federal, state and local government web resources and services.